sat.trackr.live / text

‹ back to catalog

SDA_1668

NORAD 65978 · 2025-230E

PAYLOAD ACTIVE UNKNOWN

§ Identity

Operator
Country
US
Launch date
2025-10-15
Launch site
AFWTR
Launch vehicle
Mass (kg)
RCS (m²)

External: N2YO · Heavens-Above · Gunter

§ Orbital elements

Epoch: 2026-05-25T04:54:30.063168Z

Period
103.95 min
Inclination
81.3006°
Eccentricity
0.0003031
Mean motion
13.85316788 rev/d
Perigee alt
942.9 km
Apogee alt
947.3 km
Semi-major
7,323.2 km
B*
1.1027e-2
RAAN
232.7935°
Arg perigee
259.1611°
Mean anomaly
100.9206°
Rev number
3,064

§ Raw data

SDA_16681 65978U 25230E   26145.20451462  .00012558  00000+0  11027-1 0  99912 65978  81.3006 232.7935 0003031 259.1611 100.9206 13.85316788 30649

JSON: /api/v1/satellites/65978 · /tle

For live sub-satellite position, see the globe view (requires WebGL).

§ Visibility from observer

Set your observer location to see the next 7 days of passes ≥ 10°. The values pass through the URL so the page stays shareable.

No JS? Fill the form by hand. The geolocation button needs JavaScript.